Location: Unspecified
(0.0000°N, 0.0000°E)
Time: 07:11:27
(UTC+00:00)

MIDAS 4 DEB - Pass Details

Date: 13 November 2025
Orbit: 3306 x 3926 km, 95.8° (Epoch: 14 April)

Event Time Altitude Azimuth Distance (km) Brightness Sun altitude
Exits shadow 23:36:32 12° 285° (WNW) 6,431 ? -71.7°
Maximum altitude 23:36:54 12° 284° (WNW) 6,436 ? -71.7°
Drops below altitude 10° 23:42:57 10° 263° (W) 6,734 ? -71.8°
Sets 23:52:58 0° 236° (WSW) 7,910 ? -71.6°
